Terminal Aerodrome Forecast
Issued by NWS Austin/San Antonio, TX

Home | Current Version | Previous Version | Text Only | Print | Product List | Glossary On
Versions: 1 2 3 4 5 6 7 8 9 10 11 12 13 14 15
000
FTUS44 KEWX 270500
TAFSAT
TAF
KSAT 270533Z 2706/2812 12004KT P6SM SCT250
     FM271700 06006KT P6SM FEW060 SCT250
     FM280000 10008KT P6SM SCT080 SCT250=

USA.gov is the U.S. government's official web portal to all federal, state and local government web resources and services.